Weather Roundup
Issued by NWS

Home | Current Version | Previous Version | Text Only | Print | Product List | Glossary On
Versions: 1 2 3 4 5 6 7 8 9 10 11 12 13 14 15 16 17 18 19 20 21 22 23 24 25 26 27 28 29 30 31 32 33 34 35 36 37 38 39 40 41 42 43 44 45 46 47 48 49 50
000
NZUS93 KARX 190810
HRRWXR

CURRENT HOURLY OBSERVATIONS ACROSS
MUCH OF THE UPPER MISSISSIPPI VALLEY
NATIONAL WEATHER SERVICE LA CROSSE WI
200 AM CST THU JAN 19 2017


...SOUTHEAST MINNESOTA...


CITY           SKY/WX    TMP DP  RH WIND       PRES   REMARKS
ROCHESTER      CLEAR     31  30  96 S15       29.88R WCI  20
ROCHESTER/MAYO FAIR      33  33 100 S10       29.87S WCI  25
WINONA         CLEAR     34  32  93 CALM      29.92R
AUSTIN         CLEAR     30  30 100 S8        29.88R FOG     WCI  23
ALBERT LEA     CLEAR     36  34  93 S8        29.86R WCI  29
DODGE CENTER   CLEAR     34  30  86 S13       29.85S WCI  25
PRESTON        PTCLDY    32  30  94 S13       29.89S FOG     WCI  22
OWATONNA       CLEAR     34  30  86 S13       29.84S WCI  25
FARIBAULT      CLEAR     34  30  86 S6        29.84S WCI  29
$$

...ELSEWHERE IN MINNESOTA...


CITY           SKY/WX    TMP DP  RH WIND       PRES   REMARKS
MINNEAPOLIS    CLOUDY    32  29  88 SE6       29.82S WCI  26
INTNL FALLS    CLOUDY    25  20  81 SE5       29.66F WCI  19
DULUTH         FOG       32  32 100 SW10      29.75S VSB 1/4 WCI  24
RED WING       CLOUDY    30  28  93 SE6       29.86S WCI  24
REDWOOD FALLS  CLOUDY    32  29  88 SE8       29.75F WCI  25
MANKATO        CLEAR     35  33  92 S15       29.80F WCI  25
WORTHINGTON    CLEAR     37  33  85 S15       29.77F WCI  28
FAIRMONT       CLEAR     36  33  89 S13       29.82S WCI  27
$$

...SOUTHWEST WISCONSIN...


CITY           SKY/WX    TMP DP  RH WIND       PRES   REMARKS
LA CROSSE      CLOUDY    37  34  89 S15       29.94R WCI  28
PRAIRIE DU CHI PTCLDY    34  32  94 CALM      29.97R FOG
BOSCOBEL       CLOUDY    36  33  89 S3        29.98S FOG
LONE ROCK      CLOUDY    35  32  88 S8        29.99S FOG     WCI  29
PLATTEVILLE    CLOUDY    33  33 100 S6        29.99R VSB 1/4 WCI  28
FORT MC COY    CLOUDY    34  33  96 S6        29.95R WCI  29
CAMP DOUGLAS   CLOUDY    34  33  93 S5        29.94R WCI  30
MAUSTON-NEW LI CLOUDY    34  33  96 S3        29.94R FOG
VIROQUA        CLOUDY    34  34 100 S8        29.93S WCI  27
WIS DELLS      CLOUDY    33  33  98 SW7       29.96R FOG     WCI  27
$$

...ELSEWHERE IN WISCONSIN...


CITY           SKY/WX    TMP DP  RH WIND       PRES   REMARKS
MILWAUKEE      CLOUDY    35  33  92 SW9       30.00S FOG     WCI  28
MADISON        CLOUDY    33  33 100 S6        29.99F FOG     WCI  28
GREEN BAY      CLOUDY    34  32  92 SW7       29.95R FOG     WCI  28
EAU CLAIRE     CLOUDY    27  26  96 SE6       29.87S FOG     WCI  20
BLACK RVR FLS  CLOUDY    34  34 100 CALM      29.92S FOG
MEDFORD        FOG       29  29  99 SW7       29.87F VSB 1/4 WCI  22
WAUSAU         CLOUDY    29  29 100 SW6       29.89S FOG     WCI  23
WIS RAPIDS     NOT AVBL
MARSHFIELD     FOG       30  29  96 SW9       29.89S VSB 1/4 WCI  22
RICE LAKE      FOG       27  27  97 SE5       29.86F VSB<1/4 WCI  22
$$

...NORTHEAST IOWA...


CITY           SKY/WX    TMP DP  RH WIND       PRES   REMARKS
WATERLOO       CLOUDY    32  31  96 S12       29.95R FOG     WCI  23
DUBUQUE        FOG       33  33 100 S13       29.97S VSB 1/4 WCI  24
DECORAH        CLOUDY    34  32  93 S6        29.92S WCI  29
MASON CITY     MOCLDY    32  30  92 S16       29.89S FOG     WCI  21
CHARLES CITY   MOCLDY    32  32 100 S10       29.91F FOG     WCI  24
OELWEIN        FOG       32  32 100 S16       29.95R VSB 1/4 WCI  21
$$

...ELSEWHERE IN IOWA...


CITY           SKY/WX    TMP DP  RH WIND       PRES   REMARKS
DES MOINES     FOG       37  36  96 S7        29.93S VSB 1   WCI  32
IOWA CITY      FOG       33  32  96 SE3       30.00F VSB 1/4
FORT DODGE     CLOUDY    34  30  86 S8        29.90R WCI  27
MARSHALLTOWN   FOG       33  33 100 S9        29.93S VSB 1/4 WCI  25
CEDAR RAPIDS   FOG       32  32 100 S6        29.96S VSB 1/4 WCI  26
$$

...NORTHERN ILLINOIS...


CITY           SKY/WX    TMP DP  RH WIND       PRES   REMARKS
CHICAGO-OHARE  CLOUDY    34  33  96 SW8       30.04R FOG     WCI  27
CHICAGO-MIDWAY CLOUDY    32  31  96 S6        30.06R FOG     WCI  26
MOLINE         PTCLDY    29  26  89 NE3       30.01R FOG
ROCKFORD       CLEAR     30  28  92 S6        30.04S FOG     WCI  24
PEORIA         CLOUDY    35  34  96 S6        30.04R FOG     WCI  30
$$

NOTE: "FAIR" INDICATES FEW OR NO CLOUDS BELOW 12,000 FEET WITH NO
SIGNIFICANT WEATHER AND/OR OBSTRUCTIONS TO VISIBILITY. WIND
SPEEDS ARE IN MILES-PER-HOUR.




USA.gov is the U.S. government's official web portal to all federal, state and local government web resources and services.